Regional Weather Roundup
Issued by NWS

Home | Current Version | Previous Version | Graphics & Text | Print | Product List | Glossary On
Versions: 1 2 3 4 5 6 7 8 9 10 11 12 13 14 15 16 17 18 19 20 21 22 23 24 25 26 27 28 29 30 31 32 33 34 35 36 37 38 39 40 41 42 43 44 45 46 47 48 49 50
000
ASUS43 KMPX 220510
RWRMN
WEATHER ROUNDUP FOR MINNESOTA
NATIONAL WEATHER SERVICE TWIN CITIES/CHANHASSEN MN
1200 AM CDT SAT JUL 22 2017


NOTE: "FAIR" INDICATES FEW OR NO CLOUDS BELOW 12,000 FEET WITH NO
SIGNIFICANT WEATHER AND/OR OBSTRUCTIONS TO VISIBILITY. N/A MEANS
CURRENT SKY AND/OR WEATHER CONDITIONS ARE NOT AVAILABLE.

MNZ060>063-068>070-220600-
   Twin Cities Metro

CITY           SKY/WX    TMP DP  RH WIND       PRES   REMARKS
TWIN CITIES    MOCLDY    76  66  71 NE15      29.86F
ST PAUL        MOCLDY    73  67  81 NE6       29.85F
CRYSTAL        CLOUDY    72  63  73 N6        29.87R
BLAINE         PTCLDY    72  68  88 NW16      29.90R
LAKEVILLE      CLEAR     68  68 100 CALM      29.84F
EDEN PRAIRIE   CLOUDY    76  68  76 NE10      29.84F
SOUTH ST PAUL  CLOUDY    74  65  73 NE7       29.86S
LAKE ELMO      MOCLDY    70  64  83 E6        29.87F
$$
MNZ001>005-007-008-013>017-022>024-027-028-220600-
   Northwest Minnesota

CITY           SKY/WX    TMP DP  RH WIND       PRES   REMARKS
BEMIDJI        CLOUDY    61  61  99 CALM      29.78F
HALLOCK        CLOUDY    66  63  88 E7        29.78R
ROSEAU         PTCLDY    63  57  82 E3        29.80R
WARROAD        CLOUDY    66  63  88 E5        29.82R
THIEF RVR FALL CLOUDY    65  64  97 E3        29.79S
CROOKSTON      PTCLDY    70  66  88 CALM      29.77R
FOSSTON        CLOUDY    63  61  94 CALM      29.78F
DETROIT LAKES  CLOUDY    68  64  88 S6        29.80F
MOORHEAD       MOCLDY    72  68  88 S8        29.77S
PARK RAPIDS    CLOUDY    67  64  90 S3        29.79F
MAHNOMEN       FAIR      65  62  92 SW5       29.76F
$$
MNZ006-009>011-018-025>026-220600-
   North Central Minnesota

CITY           SKY/WX    TMP DP  RH WIND       PRES   REMARKS
BAUDETTE       CLOUDY    59  58  96 CALM      29.81F
FLAG ISLAND    CLOUDY    66  57  72 NE8       29.81F
INTL FALLS     PTCLDY    56  55  97 CALM      29.83R FOG
BIG FORK       CLOUDY    59  57  94 CALM      29.84R FOG
LONGVILLE      CLOUDY    64  63  94 CALM      29.80S FOG
GRAND RAPIDS   CLOUDY    64  63  96 CALM      29.84S
CRANE LAKE     CLOUDY    55  55 100 CALM      29.86S FOG
ORR            CLOUDY    57  55  94 CALM      29.83R FOG
COOK           CLOUDY    59  57  94 CALM      29.86R
WALKER         FAIR      63  62  98 CALM      29.79F
$$
MNZ012-019>021-037-220600-
   Northeast Minnesota

CITY           SKY/WX    TMP DP  RH WIND       PRES   REMARKS
DULUTH         CLOUDY    61  61 100 CALM      29.82S
ELY            PTCLDY    63  57  82 CALM      29.86S
HIBBING        FOG       56  56 100 CALM      29.84R VSB 1
EVELETH        CLOUDY    60  57  90 CALM      29.85S FOG
DULUTH HARBOR  CLOUDY    63  63 100 N8        29.80S
TWO HARBORS    CLOUDY    63  57  82 CALM      29.80F
SILVER BAY     CLOUDY    61  57  88 CALM      29.80F
GRAND MARAIS     N/A     64  55  72 NE12      29.83F
G MARAIS ARPRT CLOUDY    61  46  59 E9        29.88F
$$
MNZ029>031-032-039>041-046>048-054>057-064-220600-
   West Central Minnesota

CITY           SKY/WX    TMP DP  RH WIND       PRES   REMARKS
FERGUS FALLS   CLOUDY    70  68  94 SE12      29.78R
WHEATON        CLOUDY    72  64  78 CALM      29.81R
MORRIS         CLOUDY    70  66  88 S13       29.78F
ALEXANDRIA     CLOUDY    68  66  93 SE5       29.81F
ELBOW LAKE     FAIR      66  65  96 SE9       29.79F
WADENA         CLOUDY    64  64 100 S6        29.78F
GLENWOOD       CLOUDY    70  66  88 S8        29.80F
APPLETON       CLOUDY    73  64  73 SE13      29.78F
BENSON         CLOUDY    70  64  83 S12       29.81F
ORTONVILLE     CLOUDY    73  64  73 SE12      29.80F
MADISON        CLOUDY    79  70  73 E13       29.81R
WILLMAR        LGT RAIN  70  66  88 E20G28    29.83F
$$
MNZ033>034-036-042>043-049>051-058-059-220600-
   Central Minnesota

CITY           SKY/WX    TMP DP  RH WIND       PRES   REMARKS
ST CLOUD       MOCLDY    66  66 100 SE13      29.78F
SAUK CENTRE    FAIR      66  65  96 SE3       29.80F
PAYNESVILLE    LGT RAIN  71  65  82 S10       29.81F
AITKIN         CLOUDY    66  64  94 S3        29.78F
PINE RIVER     CLOUDY    64  64 100 CALM      29.83F
BRAINERD       CLOUDY    65  64  97 S3        29.79F
STAPLES        CLOUDY    64  64 100 S5        29.79F
LONG PRAIRIE   FAIR      64  63  94 E5        29.81F
LITTLE FALLS   MOCLDY    64  63  94 S5        29.80F
LITCHFIELD     PTCLDY    75  72  88 E10       29.85F
BUFFALO        PTCLDY    69  63  79 E8G17     29.86F
MAPLE LAKE     PTCLDY    68  66  93 E8        29.86F
HUTCHINSON     CLOUDY    73  70  91 NE6       29.86F
$$
MNZ037-044-045-052-053-220600-
   East Central Minnesota

CITY           SKY/WX    TMP DP  RH WIND       PRES   REMARKS
PRINCETON      LGT RAIN  68  66  94 SE13      29.79F
MORA           LGT RAIN  64  63  94 CALM      29.84F
CAMBRIDGE      RAIN      68  63  83 SE10      29.83F
RUSH CITY      RAIN      65  63  93 S14       29.83F
MOOSE LAKE     CLOUDY    63  61  94 S3        29.80F
HINCKLEY       FAIR      64  64 100 E3        29.82S
CLOQUET        CLOUDY    61  59  94 CALM      29.82F
MCGREGOR       CLOUDY    64  63  94 S3        29.81S
$$
MNZ071>073-080-081-089-090-097-098-220600-
   Southwest Minnesota

CITY           SKY/WX    TMP DP  RH WIND       PRES   REMARKS
MONTEVIDEO     CLOUDY    75  70  83 SE13      29.83F
GRANITE FALLS  PTCLDY    75  70  84 E7        29.84S
CANBY          CLOUDY    74  72  92 CALM      29.82R
MARSHALL       PTCLDY    73  69  87 SE10      29.81F
REDWOOD FALLS  CLEAR     72  68  87 E5        29.83S
OLIVIA         PTCLDY    72  68  88 E3        29.84S
PIPESTONE      CLEAR     73  72  94 SE8       29.81S
WINDOM         CLEAR     72  68  88 CALM      29.82F
WORTHINGTON    CLOUDY    72  70  94 NE9       29.83R
JACKSON        CLOUDY    72  70  94 CALM      29.82F
SLAYTON        CLEAR     71  68  91 E8        29.85R
$$
MNZ065>067-074>077-082>085-091>093-220600-
   South Central Minnesota

CITY           SKY/WX    TMP DP  RH WIND       PRES   REMARKS
MANKATO        CLOUDY    73  68  84 NE9       29.81F
NEW ULM        CLEAR     72  66  83 E7        29.81F
ST JAMES       CLEAR     70  70 100 N3        29.81F
FAIRMONT       CLOUDY    72  71  97 E5        29.80F
GLENCOE        PTCLDY    74  71  92 NE5       29.84F
FARIBAULT      PTCLDY    70  68  94 NE5       29.82F
OWATONNA       PTCLDY    70  68  94 NE7       29.82F
WASECA         PTCLDY    72  68  88 NE7       29.82F
ALBERT LEA     CLEAR     72  70  94 NE6       29.80F
$$
MNZ078>079-086>088-094>096-220600-
   Southeast Minnesota

CITY           SKY/WX    TMP DP  RH WIND       PRES   REMARKS
ROCHESTER      CLOUDY    68  68 100 NE13      29.83F
RED WING       CLOUDY    72  66  83 NE9       29.84F
STANTON        CLEAR     70  67  91 E5        29.81F
DODGE CENTER   MOCLDY    68  66  94 NE8       29.83F
WINONA         CLOUDY    70  68  94 NE5       29.82F
AUSTIN         MOCLDY    70  66  88 NE7       29.80F
PRESTON        CLOUDY    68  66  93 E6        29.84S
$$
ABBREVIATIONS USED IN REMARKS
   TC - TEMPERATURES IN CELSIUS
  WCI - WIND CHILL INDEX
   HX - HEAT INDEX
  VSB - VISIBILITY
$$



USA.gov is the U.S. government's official web portal to all federal, state and local government web resources and services.